Location: Cisewo
(53.3833°N, 14.9000°E)
Time: 11:11:10
(UTC+00:00)

SPOT 5 - Pass Details

Date: 18 April 2021
Orbit: 624 x 814 km, 98.2° (Epoch: 14 May)

Event Time Altitude Azimuth Distance (km) Brightness Sun altitude
Exits shadow 19:40:23 19° 122° (ESE) 1,583 4.0 -12.9°
Maximum altitude 19:43:10 39° 64° (ENE) 1,040 3.5 -13.2°
Drops below altitude 10° 19:47:37 10° 357° (N) 2,203 6.0 -13.7°
Sets 19:50:03 0° 350° (N) 3,161 7.1 -14.0°
